Location: Newark
(42.7133°N, 87.7910°W)
Time: 09:23:51
(UTC+00:00)

Transit 4A - Pass Details

Date: 24 September 2019
Orbit: 866 x 978 km, 66.8° (Epoch: 14 October)

Event Time Altitude Azimuth Distance (km) Brightness Sun altitude
Rises 00:36:01 0° 333° (NNW) 3,600 11.5 -9.8°
Reaches altitude 10° 00:38:45 10° 340° (NNW) 2,635 10.7 -10.3°
Maximum altitude 00:44:31 42° 50° (NE) 1,282 8.4 -11.3°
Enters shadow 00:49:04 15° 116° (ESE) 2,212 9.3 -12.2°
